Date,TemperatureHighF,TemperatureAvgF,TemperatureLowF,DewpointHighF,DewpointAvgF,DewpointLowF,HumidityHigh,HumidityAvg,HumidityLow,PressureMaxIn,PressureMinIn,WindSpeedMaxMPH,WindSpeedAvgMPH,GustSpeedMaxMPH,PrecipitationSumIn
2013-4-1,65,47,34,47,36,11,99,70,33,29.69,29.41,7,2,20,0.00
2013-4-2,44,35,29,15,11,7,48,37,26,29.83,29.69,9,3,27,0.00
2013-4-3,50,38,29,16,11,4,50,34,17,30.07,29.82,8,3,25,0.00
2013-4-4,59,42,28,22,14,10,57,35,16,30.20,29.94,7,2,15,0.00
2013-4-5,67,48,38,29,26,21,72,46,18,29.93,29.54,10,3,27,0.00
2013-4-6,51,38,29,22,10,0,55,34,15,30.25,29.80,13,4,28,0.00
2013-4-7,60,42,25,40,25,11,79,53,24,30.25,29.89,10,2,22,0.00
2013-4-8,70,50,38,46,40,34,99,72,32,30.01,29.86,9,1,18,0.00
2013-4-9,76,58,45,54,46,41,96,67,40,29.99,29.77,6,2,20,0.00
2013-4-10,66,53,46,53,48,44,99,87,62,29.94,29.77,5,1,9,0.20
2013-4-11,56,48,41,49,40,27,99,77,44,30.06,29.75,6,2,13,0.00
2013-4-12,42,38,36,38,35,31,99,89,66,30.10,29.73,7,2,15,0.41
2013-4-13,57,44,35,42,39,35,99,83,53,29.85,29.69,7,1,11,0.09
2013-4-14,58,46,34,42,35,28,99,67,38,30.13,29.83,7,1,20,0.00
2013-4-15,64,45,29,39,34,27,96,68,34,30.30,30.14,7,1,13,0.00
2013-4-16,71,53,35,54,44,34,99,74,43,30.32,29.95,8,2,17,0.00
2013-4-17,71,60,46,56,39,28,90,50,26,30.25,29.96,8,3,20,0.00
2013-4-18,65,52,35,45,34,27,84,54,32,30.35,30.06,7,2,15,0.00
2013-4-19,80,65,53,67,60,45,99,85,58,30.06,29.53,9,3,20,0.00
2013-4-20,69,55,43,68,44,24,99,70,38,30.13,29.51,7,2,17,0.53
2013-4-21,58,44,32,30,23,16,76,44,23,30.60,30.13,8,2,18,0.00
2013-4-22,55,43,31,35,31,25,98,66,34,30.68,30.53,7,2,17,0.00
2013-4-23,42,40,34,42,38,30,99,93,75,30.53,30.06,5,2,11,0.01
2013-4-24,80,58,42,56,47,41,99,73,28,30.04,29.67,7,2,16,0.00
2013-4-25,70,56,42,55,38,27,99,55,26,30.19,29.73,7,2,15,0.02
2013-4-26,65,53,34,40,35,28,88,54,32,30.35,30.19,6,1,12,0.00
2013-4-27,71,53,36,42,38,34,99,61,29,30.34,30.19,6,1,12,0.00
2013-4-28,76,56,38,44,38,32,95,56,27,30.26,30.12,6,1,13,0.00
2013-4-29,74,59,44,49,38,31,80,50,30,30.18,30.08,5,1,11,0.00
2013-4-30,74,59,46,41,30,20,66,36,20,30.28,30.16,6,1,11,0.00